Retour au catalogue

NOAA 16 DEB

ActifSSO
NORAD 42350·DEBRIS·🇺🇸 United States

Lancé Sep 21, 2000 depuis Vandenberg Space Force Base

Loading…

Prochains Passages (prochaines 24 heures)

TLE

VieillissantSource: Space-Track

Époque: Sep 5, 2026, 05:03 UTC

1 42350U 00055QS  26248.21078079  .00000430  00000-0  26378-3 0  9996
2 42350  98.6555 230.3524 0026234   6.8924 353.2603 14.10664357507549

Suivez NOAA 16 DEB en temps réel avec AllMySat

Download on the App Store